IRIDIUM 33 DEB, 33960

Orbit data source: Space-Track

IRIDIUM 33 DEB, 33960 is space debris in LEO originally from a launch on Sun, 14 Sep 1997 UTC launched from the Tyuratam Missile And Space Complex (TTMTR). The debris from Iridium 33, an American commercial communications satellite, has been tracked extensively since its accidental collision with the defunct Russian satellite Cosmos 2251 in 2009. This event, occurring at high speed in low Earth orbit (LEO), generated thousands of pieces of space debris, significantly increasing the risk of further collisions. The Iridium 33 debris cloud has impacted space traffic management and orbital debris mitigation strategies, making it a subject of ongoing study in space situational awareness.

Loading next visibility...
Identifier
33960, 1997-051BV
Orbit
LEO
Country
Flag of USUS
Related business
Manufacturer
Unknown
Mission
Spacecraft
Bus & Motor
Unknown
Mass
Unknown
Launch date (UTC)
1997-09-14 (28 years ago)
Launch vehicle
Unknown
Launch site
Tyuratam Missile And Space Complex (TTMTR)
Object type
Payload
Rocket body
Debris
Shape & HBR
Unknown shape, 0.1 m
Radar Cross Section
Small (<0.1 m²)

Expand to show TLE details & history
Last TLE update: 12 hours ago

TLE from 12 hours ago
0 IRIDIUM 33 DEB
1 33960U 97051BV  26037.67213439  .00028456  00000-0  30339-2 0  9991
2 33960  86.2505 263.0717 0000447 314.5935 109.1252 14.88739635896984
Epoch: 2026-02-06T16:07Z
TLE epoch observation values (Epoch: 2026-02-06T16:07:52.411Z)
Latitude
63.5674°
Longitude
-108.16936°
Altitude
613.01 km
Speed
7.559 km/s
True Right ascension
18h 02m 25s
True Declination
63° 25' 38"
Sunlit
Object was in daylight at epoch
Visualization orbit readout
Latitude
Unknown
Longitude
Unknown
Altitude
Unknown
Speed
Unknown
Apparent Right ascension
Unknown
Apparent Declination
Unknown
Sunlit
N/A
Visualization observer readout
Local Sidereal Time
06:16:56
Azimuth
Unknown
Elevation
Unknown
Doppler factor
Unknown
Orbital elements
Apogee altitude
599.075 km
Perigee altitude
598.451 km
Semi-major axis
6,976.9 km
Eccentricity
0.00004
Inclination
86.2505°
RAAN
263.0717°
Arg. of periapsis
314.5935°
True anomaly
109.13004°
Mean anomaly
109.1252°
Eccentric anomaly
109.12762°
Mean motion
3.72434 °/min
Orbital period
96.66 mins
BSTAR
0.0030339
Loading maneuver chart data...
Computing Atmospheric mass density...

Documentation

Showing up to 5 results
|